Location: Campbell Hill
(37.9301°N, 89.5490°W)
Time: 10:04:55
(UTC+00:00)

Cosmos 1992 Rocket - Pass Details

Date: 07 November 2025
Orbit: 755 x 760 km, 74.0° (Epoch: 07 December)

Event Time Altitude Azimuth Distance (km) Brightness Sun altitude
Rises 23:31:33 0° 350° (N) 3,223 7.2 -8.1°
Reaches altitude 10° 23:34:06 10° 358° (N) 2,292 6.3 -8.6°
Maximum altitude 23:38:54 37° 66° (ENE) 1,170 4.5 -9.5°
Drops below altitude 10° 23:43:39 10° 133° (SE) 2,276 6.1 -10.4°
Sets 23:46:10 0° 142° (SE) 3,196 7.0 -10.9°
